Wind_Speed
93 95 92 92 91 91 90 90 89 88 89 90 83 79 78 78 72 65 62 58 56 56 54 53 52 50 49 46 45 43 40 39 40 41 40 42 40 39 38 45 47 53 60 66
85 85 89 94 98 98 97 97 92 85 86 82 81 84 83 80 75 72 66 63 61 58 56 54 53 52 50 45 44 42 41 40 38 39 43 44 42 39 41 45 49 58 64 69
76 76 78 79 80 83 83 89 92 86 84 82 80 82 84 82 79 73 70 68 64 60 59 56 54 51 50 48 45 42 40 38 37 39 43 41 38 37 41 48 54 59 65 69
65 67 68 68 70 73 75 76 78 86 82 77 77 77 77 79 81 73 68 65 65 63 60 57 53 50 50 49 45 41 38 37 36 41 39 40 39 38 44 50 56 61 66 71
57 58 61 60 63 65 68 70 74 77 81 82 82 79 77 77 74 73 70 65 62 59 58 55 51 49 49 48 43 38 38 37 39 41 40 39 38 40 47 52 59 63 69 71
49 51 54 56 59 61 64 65 68 68 69 74 77 79 82 81 71 68 71 67 63 59 57 53 51 48 46 43 39 37 37 38 40 40 41 38 37 43 51 57 61 66 71 72
43 45 47 50 53 54 57 60 63 65 65 67 67 72 75 74 70 67 69 68 64 61 60 56 51 47 42 39 36 36 37 39 35 38 37 37 38 47 54 60 65 70 72 73
39 39 42 45 46 47 50 54 58 61 65 66 65 66 67 64 64 65 66 63 62 59 53 49 47 40 38 37 37 36 37 35 34 35 36 37 43 49 56 63 68 73 73 77
37 38 39 40 41 43 46 50 52 58 63 63 63 64 63 58 58 59 56 51 50 47 44 43 40 39 37 36 35 35 33 30 32 32 35 37 45 53 59 64 71 72 76 79
35 37 37 38 38 40 43 47 51 57 59 61 65 60 57 56 54 54 47 45 43 42 41 40 38 37 36 35 34 34 30 30 30 31 33 39 49 57 62 68 70 74 79 81
33 33 35 36 37 39 42 46 50 55 56 59 59 57 56 57 56 48 45 42 41 41 41 39 37 37 35 33 36 30 27 27 28 30 36 45 53 58 65 67 72 77 80 82
31 32 34 36 38 40 42 48 50 55 58 57 57 58 57 56 53 50 46 43 41 41 41 39 37 35 32 35 31 27 26 25 27 32 42 49 54 61 63 69 73 76 79 77
30 32 35 37 39 40 44 47 51 56 56 53 58 59 57 54 51 50 46 42 42 42 40 37 36 32 31 30 24 22 21 25 28 38 46 51 57 60 67 70 73 74 74 72
29 33 37 39 42 42 47 51 55 59 64 63 64 62 59 55 53 49 44 44 43 41 37 36 31 31 27 23 20 18 22 23 32 41 47 54 57 63 67 69 69 69 65 56
31 36 40 43 44 46 50 54 56 61 63 66 67 64 62 59 54 49 47 45 44 39 35 31 31 25 23 21 18 19 20 26 36 43 49 53 59 63 64 65 63 57 49 45
35 40 44 46 47 49 52 55 59 62 64 68 69 68 65 60 54 51 49 47 45 37 33 32 27 23 19 17 16 16 21 30 37 44 49 55 58 61 62 56 49 44 40 36
39 43 47 49 50 52 55 58 62 64 68 70 70 69 67 61 56 53 51 49 42 37 31 30 26 20 18 16 14 15 24 31 38 44 50 53 58 58 47 43 41 34 30 26
42 46 49 52 53 55 57 60 65 67 70 73 72 70 67 62 58 54 52 47 39 36 33 29 23 20 17 13 10 17 25 32 38 44 48 54 53 45 40 40 38 28 25 22
46 50 53 55 57 58 61 64 69 72 76 76 73 71 68 63 58 56 54 45 41 38 34 28 23 20 15 9 11 18 25 31 36 42 49 47 43 41 44 40 35 30 26 25
49 53 57 59 60 61 65 70 75 76 76 78 77 75 72 65 58 56 54 47 43 39 34 28 23 19 12 10 12 18 22 28 34 40 40 41 44 41 35 29 27 28 31 37
53 57 60 62 63 65 68 73 77 77 79 78 75 72 72 67 60 56 52 49 43 38 32 27 23 17 13 11 11 15 19 25 31 31 35 39 39 35 33 31 32 35 38 43
57 60 62 64 66 69 72 75 78 79 81 80 77 76 71 65 61 58 51 47 42 37 32 27 22 19 14 9 9 11 16 21 22 30 35 35 31 31 33 36 39 43 49 50
60 63 66 69 69 71 75 77 79 82 84 82 77 77 73 67 60 57 51 48 43 37 32 28 25 20 14 8 5 7 13 16 20 27 31 33 34 34 37 39 43 44 47 54
63 66 70 71 71 73 76 78 81 84 85 83 84 79 75 68 63 57 53 50 40 38 36 31 28 20 13 6 2 5 9 14 22 27 29 31 35 37 38 40 43 47 53 56
66 69 71 72 74 76 79 81 82 86 87 86 87 79 76 72 66 61 57 48 43 41 36 34 27 20 14 8 4 5 7 11 20 24 28 29 32 36 41 43 44 45 52 53
68 70 73 76 78 79 82 84 85 88 90 89 89 82 77 73 69 61 57 51 47 42 41 34 29 23 15 11 7 7 6 10 17 22 24 25 28 31 35 39 40 42 47 49
68 72 77 79 80 81 85 88 90 92 94 95 92 85 80 74 68 65 59 56 52 45 42 38 30 23 18 14 11 10 7 9 10 16 20 21 23 28 31 34 37 39 41 43
Wind_Direction
250 249 248 248 248 248 244 246 245 243 243 243 244 244 243 243 245 246 247 248 251 254 257 260 264 269 273 277 279 284 289 289 287 290 289 291 287 286 299 306 312 317 313 315
250 250 249 249 249 248 246 246 247 243 241 240 241 242 242 243 246 246 246 249 251 253 255 259 264 268 272 274 277 280 285 283 284 287 283 287 284 292 304 309 319 316 314 317
250 250 248 247 245 244 243 242 240 241 240 239 239 239 240 241 244 245 246 248 250 253 255 259 263 267 270 271 276 277 280 277 284 277 285 284 285 298 306 314 316 317 317 317
248 246 245 245 242 240 238 236 234 236 237 237 237 238 238 240 241 241 243 246 248 250 252 256 261 265 267 269 273 270 273 273 276 278 277 280 291 301 309 314 317 315 315 314
244 244 242 243 240 237 236 234 232 233 234 235 235 235 235 238 237 237 240 242 245 248 251 254 258 264 266 269 265 263 263 272 274 278 277 283 294 306 310 315 315 314 314 314
240 240 240 239 237 237 233 232 229 228 228 227 229 231 234 235 234 234 235 239 243 246 248 251 259 262 264 259 254 254 260 270 276 277 276 288 298 310 312 312 313 311 312 312
238 237 236 235 234 232 231 228 225 224 223 222 222 223 224 227 230 230 232 237 240 244 248 252 256 259 253 246 247 250 259 270 272 275 278 291 306 310 312 313 311 311 312 313
238 236 234 232 230 227 223 224 220 219 217 216 217 217 219 220 220 226 231 236 239 243 245 247 248 243 237 237 241 249 260 269 271 273 285 298 308 312 312 311 312 312 313 315
237 235 232 229 226 222 218 216 213 211 211 211 213 214 215 214 216 221 225 228 235 235 234 230 231 229 228 229 240 250 262 264 269 279 292 307 310 311 312 310 311 312 315 315
234 232 228 225 222 216 213 209 207 207 206 207 208 208 208 208 212 217 220 224 223 222 222 222 222 223 222 229 239 252 258 264 274 287 303 308 309 309 311 311 312 315 315 315
229 224 220 218 215 210 206 201 200 199 199 201 203 204 203 204 209 211 212 213 214 213 212 214 217 214 220 230 243 252 260 268 282 296 304 306 308 311 310 313 315 315 315 316
220 215 212 209 207 203 199 196 195 193 193 196 195 193 196 201 203 203 205 207 204 203 205 209 209 211 221 235 245 254 262 278 290 301 307 309 311 310 313 315 316 316 317 319
210 206 205 202 198 195 191 189 189 188 189 187 187 187 191 194 194 196 196 196 197 201 204 204 206 214 224 239 246 253 272 284 299 305 309 311 312 315 315 317 318 320 322 322
203 200 198 196 193 190 186 185 184 182 186 183 182 182 184 186 187 189 188 191 193 198 200 200 205 215 225 235 242 260 275 297 303 308 310 313 317 315 319 320 323 323 323 323
198 197 194 192 189 186 184 184 182 184 182 180 180 178 180 180 184 184 187 187 190 193 193 197 205 214 225 233 245 265 291 299 306 309 314 316 316 319 324 328 325 325 332 331
196 194 191 189 186 184 184 180 181 182 181 179 177 177 177 177 179 182 182 183 187 186 188 197 202 211 214 230 251 279 297 303 308 316 317 317 321 328 332 327 330 342 341 343
195 193 190 187 184 183 182 180 179 181 180 176 177 176 174 174 177 179 179 182 180 181 188 192 199 197 214 234 258 290 298 306 315 318 319 324 333 333 335 340 350 357 353 360
194 192 189 185 184 182 181 179 179 179 177 176 177 176 173 173 176 176 178 177 175 184 187 190 185 197 211 233 270 290 304 314 320 321 326 337 335 345 352 359 2 9 17 26
193 191 189 185 183 181 180 179 178 179 177 177 173 177 172 172 175 177 178 172 177 179 179 176 186 196 206 228 271 299 313 323 325 331 339 339 349 4 9 10 15 31 42 51
192 190 188 185 183 181 179 179 181 179 175 176 174 178 170 171 174 176 173 175 174 171 170 173 183 192 198 237 275 302 325 331 338 342 347 0 11 18 18 22 33 46 58 65
192 190 188 185 182 182 179 179 182 178 177 177 174 175 171 169 171 170 171 175 171 168 166 173 185 186 204 233 279 320 338 343 348 353 11 18 20 26 31 40 51 62 66 71
192 190 188 186 184 182 180 180 181 179 177 177 176 174 169 166 164 171 172 173 171 167 170 178 183 190 201 228 291 333 354 357 3 21 30 31 31 38 45 56 61 66 71 71
192 190 187 186 185 182 181 180 180 179 178 175 176 173 166 165 169 172 170 170 164 170 174 183 188 183 197 225 301 4 9 15 30 39 42 45 48 53 61 64 67 69 70 70
193 190 188 186 184 182 180 180 180 179 179 173 172 172 167 166 171 172 172 173 169 177 181 185 179 176 188 215 264 49 29 48 57 56 55 53 54 55 58 63 66 70 72 71
192 191 188 185 184 183 180 180 180 179 179 172 171 171 169 168 169 170 179 170 179 180 181 181 173 180 195 211 182 101 66 64 68 61 56 56 56 57 58 61 63 65 68 68
190 190 187 185 184 183 181 181 180 179 177 174 171 170 169 169 170 173 181 176 181 177 184 178 185 187 197 208 172 132 108 81 79 67 59 54 55 56 56 58 58 60 62 62
188 189 188 186 183 183 182 182 180 179 177 174 171 170 168 167 170 173 174 181 176 184 182 188 184 190 198 200 175 149 135 108 83 75 63 58 58 58 59 57 55 55 55 56
Height
10378 10390 10402 10413 10424 10435 10447 10455 10467 10483 10495 10507 10526 10541 10548 10551 10560 10573 10581 10587 10593 10598 10603 10607 10610 10613 10615 10616 10615 10615 10614 10612 10609 10606 10604 10600 10597 10594 10590 10584 10578 10571 10562 10551
10356 10366 10376 10388 10399 10408 10423 10431 10446 10461 10474 10491 10507 10518 10525 10535 10546 10559 10569 10574 10581 10586 10591 10596 10600 10603 10605 10606 10605 10607 10605 10603 10601 10598 10595 10592 10589 10585 10579 10574 10567 10559 10549 10539
10335 10344 10353 10363 10372 10381 10394 10407 10424 10439 10454 10472 10486 10496 10508 10520 10530 10544 10554 10561 10569 10574 10579 10585 10589 10594 10596 10596 10597 10597 10597 10595 10593 10590 10587 10584 10580 10575 10570 10563 10555 10546 10538 10527
10316 10323 10331 10341 10350 10360 10372 10385 10402 10417 10435 10452 10467 10480 10493 10503 10513 10530 10539 10548 10555 10561 10567 10573 10580 10583 10585 10586 10587 10588 10588 10586 10585 10582 10579 10576 10571 10566 10560 10553 10544 10535 10527 10516
10299 10306 10313 10322 10331 10341 10353 10366 10385 10399 10415 10431 10446 10461 10474 10481 10496 10517 10526 10534 10541 10549 10556 10564 10569 10573 10575 10576 10578 10579 10579 10578 10577 10574 10571 10567 10563 10557 10550 10541 10532 10523 10514 10503
10285 10291 10298 10305 10313 10324 10336 10350 10365 10380 10396 10410 10425 10442 10454 10465 10486 10501 10510 10520 10529 10538 10545 10553 10559 10562 10565 10566 10568 10570 10571 10570 10569 10566 10563 10559 10555 10548 10539 10530 10521 10513 10502 10490
10272 10278 10284 10290 10299 10310 10322 10335 10349 10363 10379 10393 10409 10421 10435 10452 10473 10487 10497 10508 10518 10527 10535 10544 10549 10553 10555 10557 10560 10563 10564 10563 10561 10558 10554 10550 10546 10538 10529 10519 10509 10500 10489 10476
10261 10267 10272 10279 10288 10298 10309 10320 10335 10349 10365 10380 10395 10410 10424 10443 10460 10471 10484 10497 10508 10517 10526 10533 10539 10543 10547 10550 10554 10556 10556 10556 10553 10550 10547 10542 10535 10529 10520 10508 10497 10484 10473 10461
10252 10257 10262 10270 10278 10288 10298 10309 10324 10337 10352 10370 10385 10398 10417 10436 10450 10463 10475 10489 10499 10508 10515 10522 10528 10534 10539 10544 10548 10549 10550 10549 10546 10543 10539 10534 10525 10518 10510 10499 10487 10473 10459 10447
10243 10248 10255 10261 10270 10279 10289 10301 10314 10327 10344 10361 10371 10392 10412 10429 10443 10455 10471 10482 10490 10499 10506 10515 10521 10528 10533 10539 10542 10544 10543 10542 10539 10535 10532 10526 10518 10509 10499 10488 10474 10460 10445 10429
10235 10240 10247 10255 10263 10272 10282 10294 10306 10321 10337 10352 10370 10390 10406 10420 10433 10450 10464 10474 10483 10491 10501 10508 10515 10522 10529 10534 10536 10537 10538 10536 10533 10529 10524 10518 10510 10500 10488 10474 10461 10446 10429 10412
10227 10234 10241 10249 10257 10267 10277 10288 10301 10316 10331 10348 10366 10382 10398 10414 10429 10443 10456 10467 10478 10487 10494 10502 10510 10519 10525 10528 10532 10533 10532 10530 10527 10522 10517 10509 10500 10488 10475 10462 10448 10432 10414 10398
10221 10228 10236 10244 10253 10263 10274 10286 10299 10314 10330 10348 10361 10376 10393 10409 10426 10438 10451 10463 10473 10482 10490 10500 10508 10516 10520 10524 10527 10528 10526 10524 10521 10516 10509 10499 10488 10476 10463 10450 10434 10416 10399 10383
10216 10223 10232 10241 10250 10260 10271 10282 10296 10310 10321 10337 10354 10371 10388 10405 10421 10435 10448 10459 10469 10479 10489 10498 10506 10512 10516 10520 10522 10522 10522 10519 10516 10510 10501 10490 10478 10466 10453 10438 10420 10402 10387 10371
10211 10219 10228 10237 10247 10257 10268 10280 10294 10306 10321 10335 10351 10369 10384 10401 10418 10432 10444 10455 10467 10478 10487 10496 10503 10509 10514 10517 10519 10518 10517 10515 10510 10503 10492 10480 10469 10457 10442 10424 10407 10393 10377 10362
10206 10215 10225 10234 10244 10255 10266 10279 10291 10305 10320 10335 10350 10366 10382 10399 10415 10429 10441 10454 10466 10477 10487 10494 10501 10507 10511 10514 10515 10515 10514 10511 10504 10495 10484 10473 10461 10447 10430 10414 10400 10385 10371 10358
10202 10211 10221 10231 10241 10252 10265 10278 10290 10303 10318 10335 10352 10365 10381 10398 10413 10427 10440 10453 10465 10475 10484 10492 10498 10505 10509 10511 10512 10512 10511 10506 10498 10488 10478 10466 10452 10437 10423 10407 10393 10381 10369 10359
10197 10207 10217 10227 10238 10250 10263 10276 10288 10301 10319 10334 10348 10367 10381 10396 10411 10426 10439 10452 10463 10473 10481 10489 10497 10503 10507 10509 10511 10511 10508 10501 10493 10484 10472 10459 10445 10432 10417 10402 10391 10381 10370 10361
10192 10202 10213 10223 10235 10247 10261 10274 10286 10300 10315 10331 10350 10367 10380 10396 10410 10424 10438 10451 10461 10470 10480 10488 10496 10501 10504 10507 10509 10509 10503 10497 10489 10479 10468 10455 10441 10427 10412 10401 10392 10384 10376 10369
10186 10197 10208 10219 10231 10244 10257 10271 10284 10298 10316 10333 10346 10363 10376 10393 10409 10423 10438 10451 10459 10469 10478 10487 10494 10499 10503 10507 10508 10506 10500 10495 10487 10478 10468 10454 10440 10428 10419 10411 10403 10395 10385 10378
10179 10190 10202 10215 10228 10240 10253 10268 10282 10299 10315 10331 10347 10364 10375 10390 10408 10424 10438 10450 10459 10468 10477 10486 10492 10497 10502 10505 10506 10503 10499 10494 10487 10478 10468 10457 10447 10438 10430 10422 10412 10403 10396 10390
10172 10184 10198 10211 10223 10236 10250 10265 10281 10298 10313 10329 10345 10361 10378 10394 10410 10425 10437 10448 10458 10468 10477 10484 10490 10496 10501 10504 10504 10501 10499 10494 10488 10479 10471 10463 10456 10448 10439 10430 10421 10412 10404 10401
10166 10178 10191 10204 10218 10233 10247 10263 10278 10294 10309 10327 10349 10363 10375 10394 10411 10425 10438 10448 10457 10466 10475 10482 10489 10494 10499 10502 10502 10501 10499 10495 10490 10483 10478 10471 10465 10457 10449 10441 10432 10425 10417 10411
10158 10171 10184 10199 10216 10231 10246 10261 10276 10292 10311 10327 10349 10362 10374 10392 10408 10424 10437 10445 10455 10464 10472 10480 10487 10492 10497 10499 10500 10500 10499 10497 10493 10488 10484 10480 10474 10467 10459 10453 10445 10436 10428 10423
10150 10164 10180 10197 10212 10226 10241 10256 10273 10290 10307 10325 10345 10361 10373 10389 10406 10422 10433 10442 10452 10462 10471 10478 10484 10490 10494 10496 10499 10499 10500 10498 10495 10491 10488 10486 10481 10475 10469 10462 10455 10449 10440 10437
10144 10160 10176 10190 10204 10221 10237 10251 10267 10284 10303 10322 10340 10356 10373 10390 10405 10418 10431 10439 10448 10461 10466 10473 10480 10486 10491 10494 10496 10498 10499 10499 10497 10494 10492 10490 10486 10482 10476 10471 10466 10460 10452 10447
10141 10154 10167 10181 10198 10214 10229 10244 10259 10277 10296 10318 10334 10350 10368 10389 10403 10414 10424 10433 10446 10454 10462 10470 10477 10484 10488 10491 10494 10496 10498 10499 10498 10497 10495 10494 10491 10487 10482 10477 10472 10467 10461 10456